| time (UTC) | temp C | wind direction | speed KPH | gust KPH | rain 1hr cm | rain 24hr cm | rain mn cm | humidity % | barometer mb |
| 20260503021720 | 5 | 0.0 | 0.0 | 0.00 | 0.00 | 0.00 | 61 | 1015.6 | |
| 20260503020720 | 5 | 0.0 | 0.0 | 0.00 | 0.00 | 0.00 | 61 | 1015.5 | |
| 20260503015720 | 5 | 0.0 | 0.0 | 0.00 | 0.00 | 0.00 | 59 | 1015.5 | |
| 20260503014755 | 5 | 0.0 | 0.0 | 0.00 | 0.00 | 0.00 | 58 | 1015.4 | |
| 20260503013720 | 6 | 0.0 | 0.0 | 0.00 | 0.00 | 0.00 | 55 | 1015.3 | |
| 20260503012720 | 6 | 0.0 | 0.0 | 0.00 | 0.00 | 0.00 | 54 | 1015.3 | |
| 20260503011720 | 6 | 0.0 | 0.0 | 0.00 | 0.00 | 0.00 | 54 | 1015.3 | |
| 20260503010720 | 7 | 0.0 | 3.2 | 0.00 | 0.00 | 0.00 | 53 | 1015.4 | |
| 20260503005720 | 7 | 0.0 | 0.0 | 0.00 | 0.00 | 0.00 | 52 | 1015.2 | |
| 20260503004720 | 7 | 0.0 | 0.0 | 0.00 | 0.00 | 0.00 | 50 | 1015.1 | |
| 20260503003720 | 8 | 0.0 | 0.0 | 0.00 | 0.00 | 0.00 | 49 | 1015.1 | |
| 20260503002720 | 8 | 0.0 | 0.0 | 0.00 | 0.00 | 0.00 | 48 | 1015.1 | |
| 20260503001720 | 8 | 0.0 | 0.0 | 0.00 | 0.00 | 0.00 | 47 | 1015.1 | |
| 20260503000720 | 9 | 0.0 | 0.0 | 0.00 | 0.00 | 0.00 | 42 | 1015.1 | |
| 20260502235720 | 9 | 315 | 1.6 | 6.4 | 0.00 | 0.00 | 0.00 | 41 | 1015.0 |
| 20260502234720 | 9 | 0.0 | 1.6 | 0.00 | 0.00 | 0.00 | 38 | 1015.0 | |
| 20260502233720 | 10 | 293 | 1.6 | 6.4 | 0.00 | 0.00 | 0.00 | 37 | 1015.0 |
| 20260502232720 | 10 | 270 | 6.4 | 14.5 | 0.00 | 0.00 | 0.00 | 39 | 1015.0 |
| 20260502231720 | 10 | 338 | 4.8 | 8.0 | 0.00 | 0.00 | 0.00 | 37 | 1015.0 |
| 20260502230755 | 10 | 338 | 1.6 | 6.4 | 0.00 | 0.00 | 0.00 | 42 | 1015.0 |
| 20260502225720 | 10 | 315 | 1.6 | 9.7 | 0.00 | 0.00 | 0.00 | 42 | 1015.0 |
| 20260502224720 | 10 | 0.0 | 1.6 | 0.00 | 0.00 | 0.00 | 40 | 1015.2 | |
| 20260502223757 | 10 | 338 | 3.2 | 8.0 | 0.00 | 0.00 | 0.00 | 42 | 1015.1 |
| 20260502222832 | 10 | 0.0 | 3.2 | 0.00 | 0.00 | 0.00 | 41 | 1015.1 | |
| 20260502221757 | 10 | 0.0 | 1.6 | 0.00 | 0.00 | 0.00 | 40 | 1015.2 | |
| 20260502220720 | 11 | 0.0 | 1.6 | 0.00 | 0.00 | 0.00 | 41 | 1015.3 | |
| 20260502215720 | 11 | 180 | 1.6 | 6.4 | 0.00 | 0.00 | 0.00 | 42 | 1015.2 |
| 20260502214755 | 11 | 0.0 | 0.0 | 0.00 | 0.00 | 0.00 | 42 | 1015.4 | |
| 20260502213720 | 11 | 0.0 | 3.2 | 0.00 | 0.00 | 0.00 | 44 | 1015.4 | |
| 20260502212722 | 11 | 293 | 8.0 | 14.5 | 0.00 | 0.00 | 0.00 | 43 | 1015.3 |
| 20260502211757 | 11 | 225 | 9.7 | 19.3 | 0.00 | 0.00 | 0.00 | 41 | 1015.4 |
| 20260502210722 | 11 | 0.0 | 1.6 | 0.00 | 0.00 | 0.00 | 42 | 1015.4 | |
| 20260502205722 | 11 | 225 | 1.6 | 6.4 | 0.00 | 0.00 | 0.00 | 43 | 1015.5 |
| 20260502204757 | 11 | 203 | 4.8 | 6.4 | 0.00 | 0.00 | 0.00 | 46 | 1015.7 |
| 20260502203757 | 11 | 203 | 1.6 | 4.8 | 0.00 | 0.00 | 0.00 | 44 | 1015.8 |
| 20260502202722 | 11 | 225 | 9.7 | 14.5 | 0.00 | 0.00 | 0.00 | 46 | 1015.9 |
| 20260502201722 | 11 | 23 | 1.6 | 9.7 | 0.00 | 0.00 | 0.00 | 48 | 1015.9 |
| 20260502200722 | 11 | 338 | 3.2 | 9.7 | 0.00 | 0.00 | 0.00 | 45 | 1016.0 |
| 20260502195722 | 10 | 270 | 1.6 | 4.8 | 0.00 | 0.00 | 0.00 | 46 | 1016.1 |
| 20260502194722 | 10 | 270 | 1.6 | 4.8 | 0.00 | 0.00 | 0.00 | 47 | 1016.3 |
| 20260502193721 | 10 | 203 | 9.7 | 14.5 | 0.00 | 0.00 | 0.00 | 47 | 1016.4 |
| 20260502192721 | 9 | 315 | 3.2 | 8.0 | 0.00 | 0.00 | 0.00 | 54 | 1016.7 |
| 20260502191721 | 9 | 225 | 1.6 | 4.8 | 0.00 | 0.00 | 0.00 | 49 | 1016.6 |
| 20260502190721 | 10 | 293 | 1.6 | 4.8 | 0.00 | 0.00 | 0.00 | 49 | 1016.9 |
| 20260502185721 | 10 | 315 | 1.6 | 3.2 | 0.00 | 0.00 | 0.00 | 47 | 1016.9 |
| 20260502184722 | 10 | 293 | 4.8 | 12.9 | 0.00 | 0.00 | 0.00 | 50 | 1017.0 |
| 20260502183722 | 10 | 270 | 3.2 | 11.3 | 0.00 | 0.00 | 0.00 | 48 | 1017.1 |
| 20260502182722 | 10 | 248 | 3.2 | 8.0 | 0.00 | 0.00 | 0.00 | 49 | 1017.1 |
| 20260502181721 | 10 | 248 | 1.6 | 8.0 | 0.00 | 0.00 | 0.00 | 46 | 1017.2 |
| 20260502180721 | 10 | 248 | 1.6 | 6.4 | 0.00 | 0.00 | 0.00 | 46 | 1017.4 |
| 20260502112621 | -1 | 0.0 | 0.0 | 0.00 | 0.00 | 0.00 | 93 | 1018.2 | |
| 20260502111620 | -2 | 0.0 | 0.0 | 0.00 | 0.00 | 0.00 | 92 | 1018.1 | |
| 20260502110621 | -2 | 0.0 | 0.0 | 0.00 | 0.00 | 0.00 | 91 | 1018.2 | |
| 20260502105656 | -2 | 0.0 | 0.0 | 0.00 | 0.00 | 0.00 | 91 | 1018.1 | |
| 20260502104656 | -2 | 0.0 | 0.0 | 0.00 | 0.00 | 0.00 | 90 | 1018.2 | |
| 20260502103621 | -2 | 0.0 | 0.0 | 0.00 | 0.00 | 0.00 | 90 | 1018.2 | |
| 20260502102620 | -2 | 0.0 | 0.0 | 0.00 | 0.00 | 0.00 | 90 | 1018.1 | |
| 20260502100620 | -1 | 0.0 | 0.0 | 0.00 | 0.00 | 0.00 | 90 | 1018.0 | |
| 20260502090620 | -1 | 0.0 | 0.0 | 0.00 | 0.00 | 0.00 | 87 | 1017.7 | |
| 20260502070622 | 1 | 0.0 | 0.0 | 0.00 | 0.00 | 0.00 | 81 | 1017.7 | |
| 20260502065657 | 1 | 0.0 | 0.0 | 0.00 | 0.00 | 0.00 | 81 | 1017.7 | |
| 20260502064620 | 1 | 0.0 | 0.0 | 0.00 | 0.00 | 0.00 | 80 | 1017.7 | |
| 20260502063655 | 1 | 0.0 | 0.0 | 0.00 | 0.00 | 0.00 | 80 | 1017.8 | |
| 20260502062620 | 1 | 0.0 | 0.0 | 0.00 | 0.00 | 0.00 | 79 | 1017.9 | |
| 20260502061620 | 1 | 0.0 | 0.0 | 0.00 | 0.00 | 0.00 | 78 | 1017.8 | |
| 20260502060732 | 1 | 0.0 | 0.0 | 0.00 | 0.00 | 0.00 | 78 | 1017.9 | |
| 20260502055657 | 1 | 0.0 | 0.0 | 0.00 | 0.00 | 0.00 | 77 | 1017.9 | |
| 20260502054622 | 1 | 0.0 | 0.0 | 0.00 | 0.00 | 0.00 | 77 | 1018.0 | |
| 20260502053622 | 1 | 0.0 | 0.0 | 0.00 | 0.00 | 0.00 | 76 | 1017.8 | |
| 20260502052657 | 1 | 0.0 | 0.0 | 0.00 | 0.00 | 0.00 | 76 | 1017.8 | |
| 20260502051622 | 1 | 0.0 | 0.0 | 0.00 | 0.00 | 0.00 | 75 | 1017.8 | |
| 20260502050622 | 2 | 0.0 | 0.0 | 0.00 | 0.00 | 0.00 | 74 | 1017.8 | |
| 20260502045622 | 2 | 0.0 | 0.0 | 0.00 | 0.00 | 0.00 | 73 | 1017.7 | |
| 20260502044621 | 2 | 0.0 | 0.0 | 0.00 | 0.00 | 0.00 | 72 | 1017.6 | |
| 20260502043622 | 2 | 0.0 | 1.6 | 0.00 | 0.00 | 0.00 | 71 | 1017.6 | |
| 20260502042621 | 2 | 0.0 | 0.0 | 0.00 | 0.00 | 0.00 | 70 | 1017.5 | |
| 20260502041622 | 2 | 0.0 | 0.0 | 0.00 | 0.00 | 0.00 | 70 | 1017.4 | |
| 20260502040622 | 3 | 0.0 | 3.2 | 0.00 | 0.00 | 0.00 | 69 | 1017.6 | |
| 20260502035621 | 3 | 0 | 3.2 | 6.4 | 0.00 | 0.00 | 0.00 | 69 | 1017.5 |
| 20260502034656 | 3 | 0.0 | 1.6 | 0.00 | 0.00 | 0.00 | 69 | 1017.5 | |
| 20260502033621 | 3 | 0 | 3.2 | 6.4 | 0.00 | 0.00 | 0.00 | 68 | 1017.5 |
| 20260502032621 | 3 | 0.0 | 0.0 | 0.00 | 0.00 | 0.00 | 68 | 1017.5 | |
| 20260502031621 | 3 | 0.0 | 0.0 | 0.00 | 0.00 | 0.00 | 66 | 1017.5 | |
| 20260502030621 | 3 | 0.0 | 0.0 | 0.00 | 0.00 | 0.00 | 66 | 1017.4 | |
| 20260502025656 | 3 | 293 | 3.2 | 6.4 | 0.00 | 0.00 | 0.00 | 67 | 1017.4 |
| 20260502024621 | 3 | 338 | 4.8 | 12.9 | 0.00 | 0.00 | 0.00 | 66 | 1017.3 |
| 20260502023621 | 3 | 338 | 4.8 | 9.7 | 0.00 | 0.00 | 0.00 | 65 | 1017.3 |
| 20260502022621 | 3 | 23 | 3.2 | 8.0 | 0.00 | 0.00 | 0.00 | 63 | 1017.1 |